Lexington Weather

Lexington, Massachusetts, USA

36°F
1/28/2020 5:03am 
  • Lexington Conditions: Overcast
  • Temperature: 36.1°F / 2.3°C 
  • Dew Point: 29.7°FIncreased 0.4°Fsince last hour.
  • Relative Humidity: 77%Increased 1.0% since last hour.
  • Wind: Wind from NNW NNW Calm, 10-min avg: 2 mph, gust: 5 mph
  • Barometer: 29.63 in Steady
  • Visibility: 10 miles
  • Rain Today: 0.00 in
  •   

Regional Weather Roundup
for Boston / Norton, MA

        
000
ASUS41 KBOX 260801
RWRBOX

REGIONAL WEATHER ROUNDUP
NATIONAL WEATHER SERVICE BOSTON/NORTON MA
300 AM EST SUN JAN 26 2020

NOTE:  "FAIR" INDICATES FEW OR NO CLOUDS BELOW 12,000 FEET WITH NO 
SIGNIFICANT WEATHER AND/OR OBSTRUCTIONS TO VISIBILITY.

MAZALL-260900-
EASTERN MASSACHUSETTS
  
CITY           SKY/WX    TMP DP  RH WIND       PRES   REMARKS
BOSTON         FAIR      49  42  77 SW8       29.66F                  
BEVERLY        MOCLDY    46  43  89 W12       29.65S                  
LAWRENCE       FOG       42  41  96 SW7       29.68R VSB 1/4          
BEDFORD        CLOUDY    42  40  92 W3        29.67S FOG              
BLUE HILL        N/A     44  43  96 W13       29.65S                  
NORWOOD        CLOUDY    50  43  77 W9        29.68S                  
MARSHFIELD     NOT AVBL                                               
PLYMOUTH       FAIR      45  44  97 S3        29.68S                  
TAUNTON        MOCLDY    44  43  96 SW3       29.68S                  
NEW BEDFORD    FAIR      44  32  62 SW8       29.68S                  
$$

MAZALL-260900-
CAPE COD AND THE ISLANDS
  
CITY           SKY/WX    TMP DP  RH WIND       PRES   REMARKS
FALMOUTH       CLOUDY    45  45 100 W17       29.69S FOG              
HYANNIS        CLOUDY    46  45  93 SW8       29.68S                  
CHATHAM        FOG       44  44 100 S3        29.71R VSB 3/4          
PROVINCETOWN   MOCLDY    45  44  97 S7        29.69S                  
NANTUCKET      FOG       43  42  97 SW10      29.73R VSB 1/2          
MARTHAS VNYRD  CLOUDY    45  44  97 SW9       29.70S                  
$$
 
MAZALL-260900-
CENTRAL AND WESTERN MASSACHUSETTS
  
CITY           SKY/WX    TMP DP  RH WIND       PRES   REMARKS
WORCESTER      CLOUDY    40  38  93 W10       29.66S FOG              
FITCHBURG      MOCLDY    38  36  92 N3        29.67F                  
ORANGE         CLOUDY    38  37  97 N3        29.70S FOG              
SPRINGFIELD    FAIR      38  38  99 NW3       29.69S                  
WESTFIELD      MOCLDY    38  34  85 NW6       29.71S                  
NORTH ADAMS    CLOUDY    37  33  85 W9        29.73S WCI  30          
PITTSFIELD     CLOUDY    35  31  85 NW10G18   29.70S WCI  27          
$$
 
RIZALL-260900-
RHODE ISLAND
  
CITY           SKY/WX    TMP DP  RH WIND       PRES   REMARKS
PROVIDENCE     CLOUDY    46  46 100 CALM      29.69S                  
NEWPORT        CLOUDY    45  42  89 SW7       29.69S                  
BLOCK ISLAND   CLOUDY    41  40  96 W15G22    29.73S                  
SMITHFIELD     CLOUDY    45  44  97 W9        29.69R                  
WESTERLY       CLOUDY    45  40  82 W5        29.71S                  
$$
 
CTZALL-260900-
CONNECTICUT
  
CITY           SKY/WX    TMP DP  RH WIND       PRES   REMARKS
BRADLEY INTL   FAIR      37  35  92 CALM      29.72R                  
HARTFORD       FAIR      40  37  89 CALM      29.73R                  
BRIDGEPORT     FAIR      39  37  92 SW6       29.76R                  
DANBURY        CLOUDY    37  34  89 W3        29.75F                  
GROTON         NOT AVBL                                               
NEW HAVEN      CLOUDY    43  39  86 W6        29.75R                  
CHESTER        FAIR      41  39  93 W5        29.72R                  
MERIDEN        MOCLDY    40  37  89 W6        29.73S                  
WILLIMANTIC    CLOUDY    42  40  92 CALM      29.72R                  
OXFORD         CLOUDY    38  38 100 VRB5      29.73S                  
$$

MEZ002-015-021-024-NHZ003-005-008-011-012-014-VTZ005-008-260900-
NORTHERN NEW ENGLAND
  
CITY           SKY/WX    TMP DP  RH WIND       PRES   REMARKS
PORTLAND ME    FOG       44  41  89 NE7       29.66F VSB 1/2          
BANGOR ME      RAIN      35  35 100 NW3       29.86F FOG              
CONCORD NH     CLOUDY    35  34  96 NW8       29.68S FOG     WCI  29  
MANCHESTER NH  CLOUDY    39  38  96 NW6       29.66R FOG              
NASHUA NH      CLOUDY    39  39 100 NW8       29.68S FOG              
PORTSMOUTH NH  NOT AVBL                                               
JAFFREY NH     FOG       35  34  96 CALM      29.67S VSB 1            
KEENE NH       CLOUDY    35  35 100 CALM      29.70  FOG              
BURLINGTON VT  CLOUDY    34  31  88 W5        29.70R FOG     WCI  30  
MT. WASHINGTON NOT AVBL                                               
$$

NYZ052-076-260900-
EASTERN NEW YORK
  
CITY           SKY/WX    TMP DP  RH WIND       PRES   REMARKS
ALBANY         CLOUDY    38  32  79 NW8       29.77R                  
NEW YORK CITY  FAIR      41  34  76 W12       29.78F                  
$$
 
ANZALL-260900-
MARINE OBSERVATIONS
  
STATION/POSITION TIME  TEMP    WIND        PRES    VSBY  WAVE
                       AIR SEA DIR/SP/G                  HT/PER
                 (UTC) (F)     (DEG/KT/KT) (MB)    (MI)  (FT/S)
BOSTON BUOY      0650   46 43  190/ 10/ 12 1003.7          8/ 8
BUZZARDS BAY     0700   43     220/ 12/ 13 1006.3R
NANTUCKET SOUND  NOT AVBL
MASS BAY-STELLWA 0704   44 42  210/  8/ 10 1002.3F  1 7/8 10/ 8
ISLE OF SHOALS   0700   45     160/ 15/ 16 1003.6F
S OF BLOCK IS    0730      44                N/A           7/11
$$

......................KEY.........................
  SKY/WX - SKY CONDITION/PRESENT WEATHER
  TMP    - TEMPERATURE IN FAHRENHEIT
  DWPT   - DEWPOINT IN FAHRENHEIT
  RH     - RELATIVE HUMIDITY IN PERCENT
  WIND   - DIRECTION AND SPEED IN MPH
  PRES   - MEAN SEA LEVEL PRESSURE IN INCHES OF HG
  WCI    - WIND CHILL INDEX
  VSB    - VISIBILITY IN MILES
  HX     - HEAT INDEX
  TC     - TEMPERATURE IN CELSIUS
  VRB    - VARIABLE WIND DIRECTION
  N/A    - NOT AVAILABLE
  
      

Other recent Regional Weather Roundups

Tue Jan 28, 5:00am

Tue Jan 28, 4:10am

Tue Jan 28, 4:00am

Tue Jan 28, 3:10am

Tue Jan 28, 3:01am

Tue Jan 28, 2:10am

Tue Jan 28, 2:00am

Tue Jan 28, 1:10am

Tue Jan 28, 1:00am

Tue Jan 28, 12:10am

Tue Jan 28, 12:01am

Mon Jan 27, 11:10pm

Mon Jan 27, 11:00pm

Mon Jan 27, 10:10pm

Mon Jan 27, 10:00pm

Mon Jan 27, 9:10pm

Mon Jan 27, 9:00pm

Mon Jan 27, 8:10pm

Mon Jan 27, 8:01pm

Mon Jan 27, 7:10pm

Mon Jan 27, 7:00pm

Mon Jan 27, 6:10pm

Mon Jan 27, 6:00pm

Mon Jan 27, 5:10pm

Mon Jan 27, 5:00pm

Mon Jan 27, 4:10pm

Mon Jan 27, 4:00pm

Mon Jan 27, 3:10pm

Mon Jan 27, 3:00pm

Mon Jan 27, 2:10pm

Mon Jan 27, 2:00pm

Mon Jan 27, 1:10pm

Mon Jan 27, 1:00pm

Mon Jan 27, 12:10pm

Mon Jan 27, 12:00pm

Mon Jan 27, 11:10am

Mon Jan 27, 11:01am

Mon Jan 27, 10:10am

Mon Jan 27, 10:00am

Mon Jan 27, 9:10am

Mon Jan 27, 9:00am

Mon Jan 27, 8:10am

Mon Jan 27, 8:00am

Mon Jan 27, 7:10am

Mon Jan 27, 7:00am

Mon Jan 27, 6:10am

Mon Jan 27, 6:00am

Mon Jan 27, 5:10am

Mon Jan 27, 5:00am

Mon Jan 27, 4:10am

Mon Jan 27, 4:01am

Mon Jan 27, 3:10am

Mon Jan 27, 3:00am

Mon Jan 27, 2:10am

Mon Jan 27, 2:00am

Mon Jan 27, 1:10am

Mon Jan 27, 1:00am

Mon Jan 27, 12:10am

Mon Jan 27, 12:00am

Sun Jan 26, 11:10pm

Sun Jan 26, 11:00pm

Sun Jan 26, 10:10pm

Sun Jan 26, 10:00pm

Sun Jan 26, 9:10pm

Sun Jan 26, 9:01pm

Sun Jan 26, 8:10pm

Sun Jan 26, 8:00pm

Sun Jan 26, 7:10pm

Sun Jan 26, 7:00pm

Sun Jan 26, 6:10pm

Sun Jan 26, 6:01pm

Sun Jan 26, 5:10pm

Sun Jan 26, 5:01pm

Sun Jan 26, 4:10pm

Sun Jan 26, 4:00pm

Sun Jan 26, 3:10pm

Sun Jan 26, 3:01pm

Sun Jan 26, 2:10pm

Sun Jan 26, 2:01pm

Sun Jan 26, 1:10pm

Sun Jan 26, 1:00pm

Sun Jan 26, 12:10pm

Sun Jan 26, 12:00pm

Sun Jan 26, 11:10am

Sun Jan 26, 11:01am

Sun Jan 26, 10:10am

Sun Jan 26, 10:01am

Sun Jan 26, 9:10am

Sun Jan 26, 9:00am

Sun Jan 26, 8:10am

Sun Jan 26, 8:00am

Sun Jan 26, 7:10am

Sun Jan 26, 7:00am

Sun Jan 26, 6:10am

Sun Jan 26, 6:00am

Sun Jan 26, 5:10am

Sun Jan 26, 5:00am

Sun Jan 26, 4:10am

Sun Jan 26, 4:01am

Sun Jan 26, 3:10am

Sun Jan 26, 2:10am

Sun Jan 26, 2:00am

Sun Jan 26, 1:10am

Sun Jan 26, 1:00am

Sun Jan 26, 12:10am

Sun Jan 26, 12:00am

Sat Jan 25, 11:10pm

Sat Jan 25, 11:00pm

Sat Jan 25, 10:10pm

Sat Jan 25, 10:01pm

Sat Jan 25, 9:10pm

Sat Jan 25, 9:01pm

Sat Jan 25, 8:10pm

Sat Jan 25, 8:01pm

Sat Jan 25, 7:10pm

Sat Jan 25, 7:01pm

Sat Jan 25, 6:10pm

Sat Jan 25, 6:01pm

Sat Jan 25, 5:10pm

Sat Jan 25, 5:01pm

Sat Jan 25, 4:10pm

Sat Jan 25, 4:00pm

Sat Jan 25, 3:10pm

Sat Jan 25, 3:01pm

Sat Jan 25, 2:10pm

Sat Jan 25, 2:00pm

Sat Jan 25, 1:10pm

Sat Jan 25, 1:00pm

Sat Jan 25, 12:10pm

Sat Jan 25, 12:00pm

Sat Jan 25, 11:10am

Sat Jan 25, 11:00am

Sat Jan 25, 10:10am

Sat Jan 25, 10:00am

Sat Jan 25, 9:10am

Sat Jan 25, 9:00am

Sat Jan 25, 8:10am

Sat Jan 25, 8:01am

Sat Jan 25, 7:10am

Sat Jan 25, 7:00am

Sat Jan 25, 6:10am

Sat Jan 25, 6:00am

Sat Jan 25, 5:10am

Meta data:

ID: 4d912d41-f5d0-4294-959d-dec057080c2e
Link: https://api.weather.gov/products/4d912d41-f5d0-4294-959d-dec057080c2e